User: anonymous
Location: Young's Pond
(41.2695°N, 72.7766°W)
Time: 11:49:58
(UTC-04:00)
Language:

Spot 4 - Orbit

View from above orbital plane
View from above orbital plane
View from above satellite
View from above satellite

Ground track
Ground track

The orbit data is extracted from the following two-line orbital elements,

1 25260U 98017A   14246.21725271  .00000291  00000-0  81596-4 0  4343
2 25260 098.4531 310.7484 0013761 152.0773 208.1164 14.53014307853991
Epoch (UTC): 03 September 2014 05:12:50
Eccentricity: 0.0013761
inclination: 98.4531°
perigee height: 706 km
apogee height: 725 km
right ascension of ascending node: 310.7484°
argument of perigee: 152.0773°
revolutions per day: 14.53014307
mean anomaly at epoch: 208.1164°
orbit number at epoch: 85399

The dashed part of the orbit path shows where the satellite is in the earth's shadow,  

DLR